QPF
0.00 0.00 0.00 0.00 0.00 0.00 0.00 0.00 0.00 0.00 0.00 0.00 0.00 0.00 0.00 0.00 0.00 0.00 0.00 0.00 0.00 0.00 0.00 0.00 0.00 0.00 0.00 0.00 0.00 0.00 0.00 0.00 0.00 0.00 0.00 0.00 0.00 0.00 0.00 0.00 0.00 0.00 0.00 0.00
0.00 0.00 0.00 0.00 0.00 0.00 0.00 0.00 0.00 0.00 0.00 0.00 0.00 0.00 0.00 0.00 0.00 0.00 0.00 0.00 0.00 0.00 0.00 0.00 0.00 0.00 0.00 0.00 0.00 0.00 0.00 0.00 0.00 0.00 0.00 0.00 0.00 0.00 0.00 0.00 0.00 0.00 0.00 0.00
0.00 0.00 0.00 0.00 0.00 0.00 0.00 0.00 0.00 0.00 0.00 0.00 0.00 0.00 0.00 0.00 0.00 0.00 0.00 0.00 0.00 0.00 0.00 0.00 0.00 0.00 0.00 0.00 0.00 0.00 0.00 0.00 0.00 0.00 0.00 0.00 0.00 0.00 0.00 0.00 0.00 0.00 0.00 0.00
0.00 0.00 0.00 0.00 0.00 0.00 0.00 0.00 0.00 0.00 0.00 0.00 0.00 0.00 0.00 0.00 0.00 0.00 0.00 0.00 0.00 0.00 0.00 0.00 0.00 0.00 0.00 0.00 0.00 0.00 0.00 0.00 0.00 0.00 0.00 0.00 0.00 0.00 0.00 0.00 0.00 0.00 0.00 0.00
0.00 0.00 0.00 0.00 0.00 0.00 0.00 0.00 0.00 0.00 0.00 0.00 0.00 0.00 0.00 0.00 0.00 0.00 0.00 0.00 0.00 0.00 0.00 0.00 0.00 0.00 0.00 0.00 0.00 0.00 0.00 0.00 0.00 0.00 0.00 0.00 0.00 0.00 0.00 0.00 0.00 0.00 0.00 0.00
0.00 0.00 0.00 0.00 0.00 0.00 0.00 0.00 0.00 0.00 0.00 0.00 0.00 0.00 0.00 0.00 0.00 0.00 0.00 0.00 0.00 0.00 0.00 0.00 0.00 0.00 0.00 0.00 0.00 0.00 0.00 0.00 0.00 0.00 0.00 0.00 0.00 0.00 0.00 0.00 0.00 0.00 0.00 0.00
0.00 0.00 0.00 0.00 0.00 0.00 0.00 0.00 0.00 0.00 0.00 0.00 0.00 0.00 0.00 0.00 0.00 0.00 0.00 0.00 0.00 0.00 0.00 0.00 0.00 0.00 0.00 0.00 0.00 0.00 0.00 0.00 0.00 0.00 0.00 0.00 0.00 0.00 0.00 0.00 0.00 0.00 0.00 0.00
0.00 0.00 0.00 0.00 0.00 0.00 0.00 0.00 0.00 0.00 0.00 0.00 0.00 0.00 0.00 0.00 0.00 0.00 0.00 0.00 0.00 0.00 0.00 0.00 0.00 0.00 0.00 0.00 0.00 0.00 0.00 0.00 0.00 0.00 0.00 0.00 0.00 0.00 0.00 0.00 0.00 0.00 0.00 0.00
0.00 0.00 0.00 0.00 0.00 0.00 0.00 0.00 0.00 0.00 0.00 0.00 0.00 0.00 0.00 0.00 0.00 0.00 0.00 0.00 0.00 0.00 0.00 0.00 0.00 0.00 0.00 0.01 0.01 0.02 0.02 0.02 0.02 0.02 0.01 0.01 0.00 0.00 0.00 0.00 0.00 0.00 0.00 0.00
0.00 0.00 0.00 0.00 0.00 0.00 0.00 0.00 0.00 0.00 0.00 0.00 0.00 0.00 0.00 0.00 0.00 0.00 0.00 0.00 0.00 0.00 0.00 0.00 0.00 0.01 0.01 0.01 0.02 0.02 0.02 0.02 0.02 0.03 0.03 0.03 0.02 0.02 0.01 0.00 0.00 0.00 0.00 0.00
0.00 0.00 0.00 0.00 0.00 0.00 0.00 0.00 0.00 0.00 0.00 0.01 0.00 0.00 0.00 0.00 0.00 0.00 0.00 0.00 0.01 0.00 0.00 0.00 0.00 0.01 0.01 0.01 0.02 0.02 0.02 0.02 0.02 0.02 0.02 0.03 0.03 0.03 0.02 0.01 0.00 0.00 0.00 0.00
0.00 0.00 0.00 0.00 0.00 0.00 0.00 0.01 0.03 0.07 0.05 0.03 0.03 0.03 0.01 0.01 0.00 0.00 0.00 0.00 0.00 0.00 0.00 0.00 0.00 0.00 0.00 0.01 0.01 0.02 0.02 0.02 0.02 0.02 0.02 0.02 0.03 0.03 0.04 0.03 0.02 0.00 0.00 0.00
0.00 0.00 0.00 0.00 0.00 0.00 0.01 0.03 0.04 0.06 0.09 0.05 0.10 0.08 0.04 0.02 0.01 0.01 0.01 0.01 0.00 0.00 0.00 0.01 0.01 0.01 0.01 0.01 0.01 0.01 0.02 0.02 0.02 0.01 0.02 0.02 0.02 0.03 0.04 0.04 0.04 0.03 0.02 0.01
0.00 0.00 0.00 0.00 0.00 0.00 0.00 0.00 0.00 0.01 0.05 0.04 0.04 0.04 0.03 0.04 0.04 0.03 0.03 0.03 0.04 0.04 0.04 0.04 0.06 0.07 0.07 0.07 0.06 0.04 0.04 0.04 0.03 0.03 0.03 0.03 0.03 0.04 0.05 0.04 0.03 0.04 0.04 0.04
0.00 0.00 0.00 0.00 0.00 0.00 0.00 0.00 0.00 0.00 0.00 0.01 0.02 0.02 0.04 0.05 0.07 0.08 0.07 0.06 0.06 0.06 0.06 0.07 0.08 0.09 0.10 0.11 0.11 0.11 0.11 0.11 0.10 0.08 0.07 0.07 0.07 0.06 0.06 0.06 0.06 0.05 0.05 0.05
0.00 0.00 0.00 0.00 0.00 0.00 0.00 0.00 0.00 0.00 0.00 0.00 0.01 0.02 0.03 0.03 0.04 0.05 0.05 0.04 0.03 0.02 0.02 0.02 0.01 0.02 0.01 0.02 0.02 0.03 0.04 0.04 0.05 0.06 0.07 0.06 0.06 0.05 0.04 0.03 0.03 0.04 0.05 0.05
0.00 0.00 0.00 0.00 0.00 0.00 0.00 0.00 0.00 0.00 0.00 0.01 0.01 0.01 0.01 0.02 0.03 0.03 0.02 0.01 0.01 0.00 0.00 0.00 0.00 0.00 0.00 0.00 0.00 0.00 0.00 0.00 0.00 0.00 0.00 0.00 0.00 0.01 0.01 0.02 0.02 0.02 0.02 0.03
0.00 0.01 0.02 0.01 0.01 0.02 0.00 0.00 0.00 0.00 0.00 0.01 0.01 0.01 0.01 0.00 0.00 0.00 0.01 0.00 0.00 0.00 0.00 0.00 0.00 0.00 0.00 0.00 0.00 0.00 0.00 0.00 0.00 0.00 0.00 0.00 0.00 0.00 0.00 0.00 0.00 0.01 0.01 0.01
0.00 0.01 0.01 0.00 0.00 0.00 0.00 0.00 0.00 0.00 0.00 0.00 0.00 0.00 0.00 0.00 0.00 0.00 0.00 0.00 0.00 0.00 0.00 0.00 0.00 0.00 0.00 0.00 0.00 0.00 0.00 0.00 0.00 0.00 0.00 0.00 0.00 0.00 0.00 0.00 0.00 0.00 0.00 0.00
0.00 0.00 0.00 0.00 0.00 0.00 0.00 0.00 0.00 0.00 0.00 0.00 0.00 0.00 0.00 0.00 0.00 0.00 0.00 0.00 0.00 0.00 0.00 0.00 0.00 0.00 0.00 0.00 0.00 0.00 0.00 0.00 0.00 0.00 0.00 0.00 0.00 0.00 0.00 0.00 0.00 0.00 0.00 0.00
0.00 0.00 0.00 0.00 0.00 0.00 0.00 0.00 0.00 0.00 0.00 0.00 0.00 0.00 0.00 0.00 0.00 0.00 0.00 0.00 0.00 0.00 0.00 0.00 0.00 0.00 0.00 0.00 0.00 0.00 0.00 0.00 0.00 0.00 0.00 0.00 0.00 0.00 0.00 0.00 0.00 0.00 0.00 0.00
0.00 0.00 0.00 0.00 0.00 0.00 0.00 0.00 0.00 0.00 0.00 0.00 0.00 0.00 0.00 0.00 0.00 0.00 0.00 0.00 0.00 0.00 0.00 0.00 0.00 0.00 0.00 0.00 0.00 0.00 0.00 0.00 0.00 0.00 0.00 0.00 0.00 0.00 0.00 0.00 0.00 0.00 0.00 0.00
0.00 0.00 0.00 0.00 0.00 0.00 0.00 0.00 0.00 0.00 0.00 0.00 0.00 0.00 0.00 0.00 0.00 0.00 0.00 0.00 0.00 0.00 0.00 0.00 0.00 0.00 0.00 0.00 0.00 0.00 0.00 0.00 0.00 0.00 0.00 0.00 0.00 0.00 0.00 0.00 0.00 0.00 0.00 0.00
0.00 0.00 0.00 0.00 0.00 0.00 0.00 0.00 0.00 0.00 0.00 0.00 0.00 0.00 0.00 0.00 0.00 0.00 0.00 0.00 0.00 0.00 0.00 0.00 0.00 0.00 0.00 0.00 0.00 0.00 0.00 0.00 0.00 0.00 0.00 0.00 0.00 0.00 0.00 0.00 0.00 0.00 0.00 0.00
0.00 0.00 0.00 0.00 0.00 0.00 0.00 0.00 0.00 0.00 0.00 0.00 0.00 0.00 0.00 0.00 0.00 0.00 0.00 0.00 0.00 0.00 0.00 0.00 0.00 0.00 0.00 0.00 0.00 0.00 0.00 0.00 0.00 0.00 0.00 0.00 0.00 0.00 0.00 0.00 0.00 0.00 0.00 0.00
0.00 0.00 0.00 0.00 0.00 0.00 0.00 0.00 0.00 0.00 0.00 0.00 0.00 0.00 0.00 0.00 0.00 0.00 0.00 0.00 0.00 0.00 0.00 0.00 0.00 0.00 0.00 0.00 0.00 0.00 0.00 0.00 0.00 0.00 0.00 0.00 0.00 0.00 0.00 0.00 0.00 0.00 0.00 0.00
MSLP
1011.62 1012.25 1012.04 1011.54 1012.03 1012.07 1012.00 1012.14 1011.81 1010.95 1010.35 1010.42 1010.22 1009.77 1009.30 1009.35 1010.00 1010.29 1011.74 1011.72 1011.37 1010.85 1009.67 1008.78 1008.60 1008.95 1009.59 1010.21 1010.85 1011.33 1012.11 1013.01 1013.85 1014.89 1015.72 1016.47 1016.84 1017.13 1017.34 1017.40 1017.36 1017.53 1017.71 1017.86
1012.37 1012.08 1011.27 1011.64 1012.02 1012.32 1012.39 1012.30 1011.78 1010.95 1010.33 1010.73 1010.38 1009.86 1009.51 1010.05 1012.48 1013.39 1013.96 1014.00 1013.86 1012.91 1011.82 1010.75 1009.44 1009.22 1009.31 1009.77 1010.54 1011.26 1011.77 1012.48 1013.31 1014.17 1015.08 1015.76 1016.50 1017.12 1017.31 1017.43 1017.54 1017.61 1017.75 1017.93
1012.05 1011.16 1010.85 1011.45 1011.93 1012.34 1011.94 1012.15 1011.96 1011.56 1010.91 1010.65 1010.70 1010.04 1010.19 1011.35 1012.94 1014.51 1015.63 1016.32 1016.19 1015.86 1014.77 1013.35 1011.62 1010.89 1010.64 1010.61 1010.50 1010.85 1011.46 1012.16 1012.92 1013.76 1014.82 1015.88 1016.60 1017.25 1017.64 1017.70 1017.73 1017.77 1017.84 1018.02
1011.88 1010.70 1010.92 1011.38 1011.63 1011.72 1011.50 1011.08 1011.24 1011.57 1012.11 1011.96 1011.30 1011.68 1011.83 1012.36 1014.50 1016.16 1017.40 1017.96 1018.38 1017.97 1017.11 1016.03 1014.65 1013.17 1012.58 1012.19 1012.08 1012.27 1012.33 1012.65 1013.31 1013.93 1014.77 1015.52 1016.13 1017.07 1017.36 1017.51 1017.72 1017.85 1017.93 1018.11
1011.09 1010.61 1010.62 1010.86 1010.58 1010.70 1010.52 1010.46 1011.02 1011.44 1012.05 1012.37 1012.29 1013.70 1013.10 1014.42 1016.23 1018.38 1019.41 1020.29 1020.54 1020.26 1019.55 1018.41 1017.28 1016.22 1015.07 1013.93 1013.44 1013.19 1013.11 1013.27 1013.67 1014.07 1014.59 1015.33 1016.15 1016.70 1017.10 1017.44 1017.76 1018.05 1018.15 1018.25
1011.19 1010.57 1010.34 1009.75 1009.57 1009.88 1010.11 1010.59 1011.26 1011.89 1012.61 1012.94 1012.53 1014.44 1015.23 1018.03 1020.09 1021.05 1021.89 1022.39 1022.53 1022.12 1021.44 1020.47 1019.46 1018.05 1017.09 1016.08 1015.25 1014.75 1014.58 1014.30 1014.24 1014.48 1014.85 1015.31 1015.86 1016.51 1017.09 1017.52 1017.87 1018.10 1018.26 1018.41
1011.74 1010.69 1009.77 1009.52 1009.74 1009.89 1010.22 1011.04 1012.01 1012.50 1013.24 1012.73 1013.21 1015.44 1018.38 1020.59 1022.22 1023.46 1024.07 1024.36 1024.38 1024.08 1023.30 1022.37 1021.20 1020.25 1019.45 1018.48 1017.64 1016.72 1016.23 1015.93 1015.77 1015.35 1015.21 1015.46 1015.80 1016.22 1016.66 1017.13 1017.56 1018.05 1018.34 1018.36
1013.36 1011.74 1010.29 1009.91 1009.89 1010.03 1010.50 1011.07 1011.80 1012.11 1012.59 1013.25 1014.31 1016.88 1019.78 1022.38 1023.86 1024.96 1025.60 1026.03 1025.88 1025.40 1025.07 1024.55 1023.78 1022.76 1021.91 1020.79 1019.78 1018.91 1018.16 1017.65 1017.15 1016.53 1016.39 1016.33 1015.86 1016.09 1016.45 1016.82 1017.26 1017.55 1017.79 1017.90
1015.20 1013.14 1011.07 1010.43 1010.01 1010.18 1010.95 1011.14 1010.85 1011.94 1012.53 1014.00 1014.92 1018.68 1021.64 1023.46 1024.93 1026.04 1026.71 1026.98 1027.06 1027.04 1026.66 1026.17 1025.52 1024.67 1023.98 1022.65 1021.67 1021.03 1020.22 1019.52 1018.71 1018.18 1017.59 1017.09 1016.94 1017.03 1016.86 1016.69 1016.91 1017.23 1017.44 1017.65
1016.94 1015.42 1012.93 1011.68 1010.85 1010.86 1011.09 1011.44 1012.01 1012.81 1013.47 1014.22 1015.58 1018.91 1022.34 1024.88 1026.58 1027.61 1028.15 1028.50 1028.60 1028.53 1028.11 1027.59 1026.92 1026.30 1025.63 1024.58 1023.74 1022.91 1022.25 1021.52 1020.78 1019.76 1019.07 1018.64 1018.23 1017.76 1017.32 1017.34 1017.55 1017.41 1017.21 1017.40
1017.99 1017.34 1014.73 1013.79 1013.10 1013.11 1013.37 1013.53 1014.13 1014.20 1014.39 1015.61 1017.77 1021.56 1025.21 1027.42 1028.87 1029.52 1029.92 1030.06 1030.02 1029.75 1029.46 1028.96 1028.37 1027.78 1027.06 1026.12 1025.26 1024.59 1023.85 1023.12 1022.29 1021.51 1020.78 1020.00 1019.33 1018.78 1018.36 1018.26 1018.29 1017.84 1017.62 1017.71
1019.16 1018.68 1017.52 1016.20 1015.42 1015.77 1016.77 1017.90 1018.10 1017.96 1017.69 1019.21 1020.73 1024.42 1027.79 1029.19 1030.13 1030.63 1031.13 1031.25 1031.15 1030.96 1030.62 1030.15 1029.51 1028.73 1028.04 1027.48 1026.78 1026.11 1025.49 1024.73 1024.05 1023.20 1022.35 1021.61 1020.88 1020.12 1019.47 1019.23 1019.15 1018.75 1018.33 1017.99
1020.25 1020.02 1019.54 1017.73 1017.79 1018.16 1019.72 1021.41 1022.04 1022.14 1021.97 1022.26 1024.31 1027.08 1029.59 1030.86 1031.43 1031.81 1031.99 1032.08 1032.00 1031.81 1031.40 1030.91 1030.29 1029.67 1029.04 1028.60 1028.03 1027.31 1026.67 1025.98 1025.22 1024.31 1023.55 1022.88 1022.27 1021.60 1021.01 1020.57 1020.00 1019.64 1019.11 1018.90
1020.94 1021.39 1021.45 1021.32 1021.53 1022.25 1023.27 1024.30 1025.01 1025.06 1025.77 1026.17 1027.31 1029.32 1031.37 1032.49 1032.88 1033.05 1033.13 1033.11 1032.98 1032.81 1032.41 1031.84 1031.25 1030.57 1030.18 1029.59 1028.85 1028.16 1027.57 1026.92 1026.14 1025.38 1024.66 1024.06 1023.50 1022.98 1022.38 1021.90 1021.38 1020.65 1020.21 1019.85
1022.13 1022.59 1022.64 1022.67 1023.00 1023.87 1025.98 1027.11 1027.77 1028.34 1029.42 1030.19 1031.00 1032.33 1033.75 1034.21 1034.28 1034.31 1034.33 1034.20 1033.94 1033.59 1033.40 1032.85 1032.06 1031.39 1030.79 1029.96 1029.43 1028.94 1028.32 1027.67 1026.99 1026.21 1025.65 1025.13 1024.58 1024.09 1023.66 1022.99 1022.37 1021.68 1021.22 1020.88
1023.71 1023.85 1023.97 1024.09 1024.38 1025.24 1027.95 1029.41 1030.20 1031.13 1031.99 1032.64 1033.49 1034.64 1035.41 1035.42 1035.36 1035.07 1035.14 1035.15 1034.76 1034.41 1034.09 1033.56 1032.85 1032.29 1031.49 1030.52 1030.17 1029.64 1028.99 1028.31 1027.70 1027.10 1026.58 1026.05 1025.58 1025.03 1024.52 1023.67 1023.23 1022.67 1022.32 1021.78
1024.76 1024.76 1025.58 1025.77 1026.28 1027.70 1030.16 1031.90 1032.56 1033.49 1034.36 1034.94 1035.46 1036.32 1036.58 1036.47 1036.34 1036.02 1035.87 1035.95 1035.56 1034.96 1034.60 1033.71 1033.21 1032.98 1032.14 1031.14 1030.93 1030.54 1029.70 1028.69 1027.84 1027.32 1026.87 1026.44 1025.87 1025.34 1024.76 1024.62 1024.00 1023.56 1023.32 1022.76
1024.91 1025.58 1026.49 1027.34 1028.22 1030.57 1032.89 1033.75 1034.45 1035.26 1036.26 1036.87 1037.25 1037.60 1037.86 1037.76 1037.04 1036.36 1036.52 1036.67 1036.15 1035.46 1034.51 1033.69 1033.57 1033.09 1032.00 1031.41 1031.03 1030.92 1030.23 1029.34 1028.59 1027.72 1026.90 1026.54 1025.97 1025.62 1025.01 1024.53 1024.15 1023.56 1023.75 1023.48
1025.33 1026.47 1027.49 1029.27 1031.54 1033.16 1034.34 1035.53 1036.41 1037.11 1038.10 1038.68 1038.94 1038.86 1038.78 1038.27 1037.33 1036.71 1036.73 1036.48 1036.33 1035.73 1034.97 1034.41 1033.68 1032.82 1031.86 1031.53 1030.98 1030.69 1030.25 1029.28 1028.44 1027.88 1027.23 1026.70 1026.44 1026.20 1025.56 1024.86 1024.23 1023.81 1023.75 1023.38
1026.81 1027.79 1029.08 1031.38 1033.58 1034.92 1036.14 1036.90 1037.49 1038.21 1039.37 1039.88 1040.19 1039.98 1039.81 1039.40 1038.78 1037.79 1036.93 1036.71 1036.23 1035.72 1035.10 1034.33 1033.46 1032.77 1032.06 1031.50 1031.06 1030.53 1030.13 1029.24 1028.49 1027.91 1027.28 1026.81 1026.40 1026.25 1025.73 1025.07 1024.33 1023.93 1023.66 1023.35
1029.97 1031.19 1032.80 1034.02 1035.44 1036.73 1037.42 1038.21 1038.62 1040.01 1041.53 1041.13 1041.05 1040.82 1040.48 1040.14 1039.36 1037.76 1037.12 1036.43 1035.97 1035.34 1034.69 1034.00 1033.40 1033.03 1032.46 1031.91 1031.48 1030.88 1030.20 1029.79 1028.90 1028.36 1027.79 1027.49 1026.86 1026.37 1025.74 1024.91 1024.07 1023.74 1023.72 1023.52
1034.15 1035.61 1036.20 1036.84 1037.69 1038.40 1038.90 1039.31 1040.28 1041.15 1041.62 1041.97 1041.86 1041.56 1040.80 1039.84 1038.75 1037.85 1036.99 1036.30 1035.65 1035.05 1034.34 1033.82 1033.27 1032.71 1032.11 1031.67 1031.29 1030.65 1030.17 1029.44 1028.57 1028.10 1027.60 1027.34 1026.70 1026.18 1025.47 1024.87 1024.21 1023.95 1023.96 1023.77
1036.87 1038.24 1038.74 1039.15 1039.16 1039.39 1039.96 1040.59 1041.01 1041.45 1042.56 1042.55 1042.41 1041.42 1040.64 1039.79 1038.71 1037.79 1036.82 1036.09 1035.41 1034.86 1034.28 1033.72 1033.18 1032.56 1032.11 1031.65 1031.12 1030.39 1029.71 1029.14 1028.65 1028.32 1027.83 1027.29 1026.74 1026.40 1025.72 1024.77 1024.49 1024.51 1024.37 1023.83
1038.88 1039.65 1040.28 1040.59 1040.55 1040.79 1041.15 1041.55 1041.94 1042.37 1042.64 1042.46 1041.93 1041.14 1040.32 1039.33 1038.38 1037.50 1036.71 1036.00 1035.34 1034.68 1033.99 1033.34 1032.84 1032.47 1031.85 1031.32 1030.85 1030.46 1029.83 1029.27 1028.86 1028.40 1027.96 1027.36 1026.58 1025.53 1024.85 1024.69 1024.33 1023.89 1023.51 1023.17
1041.30 1041.50 1042.35 1042.14 1042.22 1041.93 1042.32 1042.61 1042.70 1042.74 1042.17 1041.91 1040.95 1040.29 1039.49 1038.60 1037.83 1037.21 1036.50 1035.88 1035.24 1034.54 1033.84 1033.39 1032.92 1032.28 1031.72 1031.36 1030.92 1030.43 1029.84 1029.42 1028.82 1028.13 1027.44 1026.73 1026.00 1025.49 1025.00 1024.58 1024.21 1023.79 1023.34 1023.02
1043.14 1043.86 1044.39 1043.95 1044.10 1044.53 1043.62 1042.66 1042.60 1042.51 1041.92 1040.97 1040.19 1039.29 1038.76 1038.21 1037.49 1036.87 1036.23 1035.65 1035.08 1034.33 1033.91 1033.33 1032.86 1032.27 1031.69 1031.13 1030.54 1029.95 1029.36 1028.83 1028.26 1027.57 1026.91 1026.44 1025.81 1025.37 1024.90 1024.44 1023.89 1023.43 1022.80 1022.10
Thickness
5636 5626 5629 5640 5632 5641 5644 5634 5639 5650 5659 5655 5652 5658 5673 5676 5671 5671 5656 5658 5665 5668 5675 5682 5681 5678 5673 5669 5663 5659 5653 5645 5640 5632 5626 5621 5619 5618 5617 5616 5616 5614 5613 5613
5621 5618 5638 5636 5629 5626 5625 5623 5628 5638 5646 5638 5641 5650 5664 5667 5639 5626 5623 5626 5628 5636 5648 5661 5671 5670 5670 5664 5657 5651 5646 5639 5634 5629 5621 5617 5613 5610 5608 5607 5606 5605 5605 5604
5612 5631 5638 5628 5623 5618 5619 5614 5615 5621 5632 5635 5633 5639 5651 5647 5619 5612 5604 5602 5601 5602 5610 5624 5645 5651 5650 5650 5649 5645 5639 5634 5629 5623 5614 5607 5603 5599 5596 5594 5594 5595 5596 5595
5610 5627 5625 5620 5619 5611 5607 5619 5619 5614 5611 5603 5627 5607 5630 5644 5608 5587 5583 5579 5574 5576 5584 5594 5605 5622 5626 5627 5627 5625 5622 5620 5615 5611 5606 5601 5597 5591 5588 5586 5585 5585 5585 5584
5614 5622 5618 5610 5614 5613 5615 5619 5611 5608 5597 5601 5608 5594 5616 5594 5586 5561 5563 5552 5549 5552 5558 5566 5575 5584 5594 5604 5606 5607 5607 5606 5602 5599 5596 5591 5585 5582 5578 5576 5575 5573 5572 5571
5606 5615 5617 5616 5621 5614 5616 5609 5596 5583 5579 5573 5604 5592 5605 5536 5524 5535 5530 5522 5523 5527 5533 5540 5548 5559 5566 5574 5580 5586 5587 5588 5587 5585 5582 5579 5575 5570 5566 5564 5562 5560 5559 5558
5593 5604 5611 5613 5606 5607 5605 5585 5566 5567 5557 5574 5585 5581 5523 5505 5502 5494 5493 5494 5493 5498 5506 5513 5521 5528 5535 5542 5549 5557 5561 5563 5564 5568 5568 5566 5564 5561 5558 5554 5551 5548 5546 5545
5569 5579 5602 5601 5598 5593 5581 5577 5559 5556 5560 5565 5563 5565 5504 5480 5477 5472 5469 5464 5470 5474 5476 5480 5487 5495 5501 5511 5518 5525 5531 5535 5539 5545 5546 5546 5550 5548 5546 5543 5540 5538 5536 5534
5539 5564 5582 5586 5588 5584 5571 5562 5576 5556 5558 5537 5558 5472 5466 5460 5455 5449 5443 5441 5439 5441 5447 5452 5458 5464 5470 5481 5488 5493 5500 5505 5511 5516 5521 5525 5526 5527 5529 5529 5528 5526 5524 5522
5514 5527 5559 5568 5575 5571 5563 5562 5549 5536 5534 5536 5548 5520 5477 5435 5421 5419 5413 5411 5411 5412 5416 5423 5429 5435 5441 5449 5455 5461 5467 5473 5478 5487 5493 5496 5500 5504 5509 5508 5507 5508 5509 5508
5494 5502 5536 5538 5547 5540 5531 5527 5512 5527 5534 5535 5538 5494 5402 5386 5380 5380 5380 5382 5382 5384 5387 5392 5398 5403 5409 5418 5425 5430 5435 5441 5448 5455 5461 5468 5474 5479 5483 5484 5484 5487 5489 5488
5477 5467 5474 5497 5511 5485 5470 5460 5467 5485 5497 5461 5480 5423 5364 5359 5354 5354 5350 5351 5353 5356 5359 5363 5369 5376 5382 5387 5393 5399 5404 5410 5416 5423 5430 5436 5442 5449 5456 5459 5459 5462 5466 5469
5456 5442 5429 5488 5480 5472 5450 5416 5412 5420 5426 5434 5442 5402 5334 5327 5329 5326 5326 5327 5327 5330 5334 5337 5343 5348 5354 5358 5363 5370 5376 5382 5388 5395 5402 5407 5412 5418 5424 5429 5434 5438 5441 5443
5444 5425 5412 5401 5417 5407 5399 5366 5361 5374 5377 5373 5389 5333 5300 5297 5299 5299 5296 5298 5300 5302 5306 5311 5315 5322 5324 5329 5336 5342 5347 5353 5360 5366 5373 5378 5383 5388 5394 5400 5405 5411 5414 5417
5403 5370 5396 5402 5398 5385 5324 5326 5326 5309 5281 5299 5272 5270 5265 5267 5267 5270 5265 5266 5268 5271 5275 5279 5287 5293 5298 5304 5309 5314 5320 5325 5331 5338 5344 5349 5354 5359 5362 5369 5375 5381 5385 5389
5373 5341 5372 5354 5372 5365 5292 5292 5296 5286 5265 5253 5237 5236 5235 5238 5243 5248 5242 5237 5241 5244 5246 5250 5258 5263 5270 5279 5281 5286 5290 5296 5302 5307 5313 5318 5323 5328 5333 5341 5344 5349 5354 5360
5349 5337 5297 5293 5338 5324 5301 5255 5268 5253 5235 5230 5241 5210 5211 5211 5214 5217 5217 5212 5213 5218 5222 5228 5233 5235 5242 5250 5252 5254 5261 5269 5277 5282 5285 5290 5296 5301 5307 5309 5314 5318 5321 5328
5334 5330 5324 5290 5319 5286 5233 5233 5227 5222 5209 5204 5204 5198 5189 5187 5191 5195 5194 5190 5192 5197 5203 5209 5210 5212 5221 5226 5230 5228 5234 5241 5246 5254 5262 5264 5269 5273 5279 5284 5288 5294 5293 5296
5323 5312 5296 5261 5217 5225 5210 5204 5191 5185 5181 5169 5166 5169 5166 5166 5166 5178 5177 5177 5177 5178 5182 5187 5192 5197 5203 5205 5209 5210 5213 5222 5228 5231 5236 5240 5241 5242 5249 5256 5261 5265 5266 5270
5302 5286 5281 5242 5252 5246 5188 5190 5185 5172 5175 5156 5152 5147 5142 5144 5144 5153 5148 5161 5161 5162 5166 5170 5175 5178 5182 5186 5189 5191 5194 5200 5205 5210 5213 5217 5220 5220 5224 5230 5236 5240 5243 5245
5258 5229 5209 5212 5182 5172 5167 5165 5166 5179 5169 5143 5138 5138 5135 5137 5136 5148 5147 5147 5149 5149 5152 5156 5158 5157 5159 5162 5165 5169 5173 5175 5181 5184 5186 5187 5192 5196 5200 5206 5213 5216 5217 5219
5187 5171 5178 5159 5154 5189 5156 5166 5175 5146 5122 5118 5113 5114 5127 5130 5131 5132 5136 5138 5139 5139 5140 5140 5143 5144 5145 5146 5149 5152 5151 5157 5162 5166 5168 5169 5172 5175 5182 5185 5189 5191 5191 5192
5202 5167 5172 5170 5176 5164 5148 5144 5129 5121 5120 5113 5106 5111 5112 5115 5119 5121 5125 5124 5126 5126 5127 5128 5129 5131 5129 5129 5130 5135 5137 5140 5143 5144 5146 5148 5150 5151 5155 5161 5164 5164 5163 5168
5159 5150 5156 5146 5157 5151 5132 5120 5115 5115 5108 5101 5098 5101 5103 5105 5107 5111 5111 5111 5111 5112 5113 5115 5115 5113 5115 5114 5114 5113 5117 5120 5122 5124 5125 5128 5132 5138 5142 5143 5146 5150 5149 5150
5131 5142 5125 5136 5131 5126 5114 5101 5103 5099 5094 5088 5095 5094 5097 5101 5100 5097 5097 5096 5096 5097 5097 5097 5096 5097 5098 5095 5095 5093 5094 5095 5099 5103 5106 5110 5114 5117 5119 5121 5122 5125 5129 5130
5121 5119 5108 5120 5101 5098 5102 5097 5088 5087 5091 5092 5094 5094 5089 5085 5085 5084 5082 5081 5079 5079 5077 5077 5075 5076 5076 5076 5077 5076 5076 5078 5080 5083 5086 5087 5092 5093 5094 5097 5100 5102 5108 5113